GW2968 Weather Reports


time (UTC)temp
C
wind
direction
speed
KPH
gust
KPH
rain 1hr
cm
rain 24hr
cm
rain mn
cm
humidity
%
barometer
mb
20260507041558 6 279 1.6 6.4 0.00 0.56 0.00 100 1010.9
20260507040056 6 279 3.2 6.4 0.00 0.56 0.00 100 1010.8
20260507034602 6 292 4.8 6.4 0.00 0.56 0.00 100 1010.7
20260507033100 6 295 1.6 6.4 0.00 0.56 0.00 100 1010.7
20260507031537 6 291 4.8 8.0 0.00 0.56 0.00 100 1010.6
20260507030032 6 309 4.8 9.7 0.00 0.56 0.00 100 1010.6
20260507024530 6 277 4.8 6.4 0.00 0.56 0.00 100 1010.5
20260507023025 6 300 1.6 6.4 0.00 0.56 0.00 100 1010.5
20260507021519 6 317 3.2 6.4 0.00 0.56 0.00 100 1010.4
20260507020017 6 310 3.2 6.4 0.00 0.56 0.00 100 1010.3
20260507014519 6 334 3.2 11.3 0.00 0.56 0.00 100 1010.2
20260507013012 6 309 1.6 6.4 0.00 0.56 0.00 100 1010.1
20260507011506 6 309 3.2 6.4 0.00 0.56 0.00 100 1010.0
20260507010003 6 311 3.2 6.4 0.00 0.58 0.00 100 1009.9
20260507004557 6 317 1.6 6.4 0.00 0.58 0.00 100 1009.7
20260507003053 6 333 1.6 9.7 0.00 0.58 0.00 100 1009.6
20260507001607 6 314 0.0 4.8 0.00 0.58 0.00 100 1009.6
20260507000047 6 317 0.0 3.2 0.00 0.61 0.00 100 1009.5
20260506234552 6 317 1.6 6.4 0.00 0.61 0.00 100 1009.6
20260506233040 6 316 1.6 4.8 0.00 0.61 0.00 100 1009.6
20260506231537 6 315 0.0 6.4 0.00 0.61 0.00 100 1009.5
20260506230030 6 305 1.6 4.8 0.00 0.79 0.00 100 1009.5
20260506224529 6 307 1.6 6.4 0.00 0.79 0.00 100 1009.2
20260506223022 6 349 6.4 12.9 0.00 0.79 0.00 100 1009.0
20260506221518 6 315 4.8 9.7 0.00 0.79 0.00 100 1009.0
20260506220029 6 316 0.0 6.4 0.00 1.30 0.79 100 1008.9
20260506214510 6 341 3.2 8.0 0.00 1.30 0.79 100 1008.9
20260506213005 6 306 3.2 6.4 0.00 1.30 0.79 100 1008.8
20260506211505 6 295 4.8 9.7 0.00 1.30 0.79 100 1008.7
20260506210059 6 311 3.2 12.9 0.00 1.45 0.79 100 1008.6
20260506204555 6 327 4.8 9.7 0.00 1.45 0.79 100 1008.6
20260506203058 6 320 1.6 4.8 0.00 1.45 0.79 100 1008.5
20260506201547 6 319 0.0 8.0 0.00 1.45 0.79 100 1008.3
20260506200045 6 320 4.8 12.9 0.00 1.55 0.79 100 1008.2
20260506194545 6 323 4.8 8.0 0.00 1.55 0.79 100 1008.1
20260506193043 6 304 8.0 11.3 0.00 1.55 0.79 100 1008.0
20260506191533 6 337 4.8 11.3 0.00 1.55 0.79 100 1007.8
20260506190038 6 327 4.8 11.3 0.00 1.65 0.79 100 1007.7
20260506184532 7 308 4.8 9.7 0.00 1.65 0.79 100 1007.4
20260506183029 7 324 3.2 6.4 0.00 1.65 0.79 100 1007.2
20260506181523 7 325 0.0 4.8 0.00 1.65 0.79 100 1007.1
20260506180012 7 325 1.6 6.4 0.00 1.75 0.79 100 1007.0
20260506174508 7 323 4.8 9.7 0.00 1.75 0.79 100 1006.9
20260506173004 7 304 4.8 9.7 0.00 1.75 0.79 100 1006.7
20260506171606 7 324 0.0 8.0 0.00 1.75 0.79 100 1006.6
20260506170110 7 301 3.2 8.0 0.00 1.91 0.79 100 1006.5
20260506170000 7 300 3.2 8.0 0.00 1.91 0.79 100 1006.5
20260506164557 7 314 3.2 6.4 0.00 1.91 0.79 100 1006.5
20260506163054 8 324 3.2 8.0 0.00 1.91 0.79 100 1006.3
20260506161549 8 5 3.2 9.7 0.03 1.91 0.79 100 1006.3
20260506160058 8 309 4.8 12.9 0.03 2.01 0.79 100 1006.1
20260506154541 8 309 4.8 14.5 0.05 2.01 0.79 100 1006.1
20260506153036 8 336 8.0 14.5 0.05 2.01 0.79 100 1006.0
20260506151533 8 336 6.4 17.7 0.10 1.98 0.76 100 1005.8
20260506150026 8 333 6.4 11.3 0.13 1.98 0.76 100 1005.7
20260506144521 8 303 4.8 11.3 0.15 1.98 0.76 100 1005.6
20260506143017 8 311 6.4 14.5 0.13 1.93 0.71 100 1005.6
20260506141512 9 292 8.0 12.9 0.13 1.93 0.71 100 1005.5
20260506140012 9 285 6.4 12.9 0.08 1.85 0.64 100 1005.4
20260506134507 9 312 4.8 8.0 0.05 1.83 0.61 100 1005.2
20260506133004 9 320 4.8 8.0 0.08 1.83 0.61 100 1005.1
20260506131604 9 312 4.8 9.7 0.08 1.80 0.58 100 1005.1
20260506130056 10 312 4.8 9.7 0.10 1.80 0.56 100 1005.0
20260506124555 10 319 6.4 11.3 0.13 1.80 0.56 100 1005.0
20260506123046 9 329 6.4 12.9 0.10 1.78 0.53 100 1004.9
20260506121543 10 330 3.2 8.0 0.05 1.75 0.51 100 1004.9
20260506120041 10 343 6.4 14.5 0.05 1.73 0.48 100 1004.8
20260506114536 10 317 6.4 9.7 0.05 1.70 0.46 100 1004.6
20260506113032 10 335 0.0 4.8 0.03 1.68 0.43 100 1004.6
20260506111528 10 337 0.0 8.0 0.03 1.68 0.43 100 1004.5
20260506110025 10 317 1.6 6.4 0.00 1.65 0.43 100 1004.6
20260506104521 10 321 6.4 11.3 0.00 1.65 0.43 100 1004.5
20260506103025 10 261 1.6 6.4 0.00 1.65 0.43 100 1004.4
20260506101512 10 269 3.2 11.3 0.00 1.65 0.43 100 1004.3
20260506100007 10 332 6.4 11.3 0.00 1.65 0.43 100 1004.2
20260506094504 10 261 0.0 8.0 0.03 1.65 0.43 100 1004.2
20260506093059 10 213 3.2 8.0 0.08 1.65 0.43 100 1004.2
20260506091555 10 257 3.2 8.0 0.13 1.65 0.43 100 1004.1
20260506090053 10 226 0.0 6.4 0.13 1.65 0.43 100 1004.1
20260506084548 10 207 0.0 4.8 0.10 1.65 0.41 100 1004.1
20260506083044 9 234 0.0 4.8 0.05 1.60 0.36 100 1004.0
20260506081540 10 260 1.6 3.2 0.03 1.55 0.30 100 1003.9
20260506073030 10 264 0.0 3.2 0.03 1.55 0.30 100 1003.7
20260506071525 9 264 0.0 3.2 0.00 1.52 0.28 100 1003.7
20260506061513 8 266 0.0 4.8 0.03 1.52 0.28 100 1003.7
20260506044604 8 287 0.0 3.2 0.03 1.45 0.23 100 1003.7
20260506043047 8 287 0.0 3.2 0.00 1.42 0.23 100 1003.6